Content
SEND FEEDBACK

Daily
Averages
Monthly
Summary
Philippines

QUEZON CITY, PHILIPPINES


Home > Asia > Philippines
Elevation: 46 meters     Latitude: 14 39N     Longitude: 121 03E

WEATHER
 
SELECT A DAY
Number of Records: 178,854;   Date Range: 7/1/96 - 12/17/14
 
SHARE

PRINT THIS DATA

[ ← Previous Day ]
WEATHER ALMANAC - 7 MAY, 2013
[ Next Day → ]
[ °F ]   °C
Weather ElementAverageHighLow
Temperature31.5 °C36 °C (3:00 pm)28 °C (2:00 am)
Dewpoint22.8 °C24 °C (12:00 pm)21 °C (4:00 am)
Humidity58.1 %70 % (2:00 am)39 % (5:00 pm)
Barometer1007.8 hPa1010.2 hPa (9:00 am)1005.1 hPa (4:00 pm)
Wind Speed11.1 km/h20.4 km/h (5:00 pm)
Weather ElementAverage
Visibility9.8 km
Wind DirectionESE (121.3 °)

Weather ElementTotal
Precipitation---
Cooling Degree Days13.7 (Base 18.3)
Growing Degree Days22 (Base 10)
Averaged from 31 records on 7 May, 2013
WEATHER CONDITIONS BREAKOUT
WIND DIRECTION BREAKOUT
WEATHER BY HOUR - 7 MAY, 2013
[ °F ]   °C
Local TimeTemperatureDewpointHumidityBarometerVisibilityWind DirectionWind SpeedGust SpeedPrecipitationEventsConditions
1:00 AM29 °C22 °C66 %1008.1 hPa10 kmESE (120°)9.3 km/hPartly Cloudy
2:00 AM28.9 °C22.2 °C60 %1008.1 hPa9.7 kmEast (80°)7.2 km/hPartly Cloudy
2:00 AM28 °C22 °C70 %1007.1 hPa10 kmEast (80°)5.6 km/hScattered Clouds
3:00 AM28 °C22 °C70 %1007.1 hPa10 kmEast (90°)5.6 km/hPartly Cloudy
4:00 AM28 °C21 °C66 %1007.1 hPa10 kmCalmPartly Cloudy
5:00 AM28.3 °C21.7 °C58 %1008.1 hPa9.7 kmCalmHaze
5:00 AM29 °C21 °C62 %1008.1 hPa10 kmCalmScattered Clouds
6:00 AM29 °C21 °C62 %1008.1 hPa9 kmVariable1.9 km/hPartly Cloudy
7:00 AM31 °C22 °C58 %1009.1 hPa10 kmSE (130°)1.9 km/hPartly Cloudy
8:00 AM31.1 °C22.2 °C51 %1009.8 hPa9.7 kmENE (70°)7.2 km/hHaze
8:00 AM31 °C22 °C58 %1009.1 hPa10 kmENE (70°)9.3 km/hPartly Cloudy
9:00 AM32 °C22 °C55 %1010.2 hPa10 kmNE (50°)9.3 km/hPartly Cloudy
10:00 AM32 °C23 °C59 %1010.2 hPa10 kmWest (260°)13 km/hPartly Cloudy
11:00 AM32.8 °C23.3 °C49 %1009.5 hPa9.7 kmWest (280°)14.3 km/hPartly Cloudy
11:00 AM33 °C23 °C55 %1009.1 hPa10 kmWest (280°)16.7 km/hPartly Cloudy
12:00 PM32 °C24 °C62 %1009.1 hPa10 kmWest (260°)11.1 km/hMostly Cloudy
1:00 PM35 °C23 °C49 %1008.1 hPa10 kmSE (140°)13 km/hScattered Clouds
2:00 PM35 °C23.9 °C44 %1007.1 hPa9.7 kmSSE (150°)14.3 km/hScattered Clouds
2:00 PM35 °C24 °C53 %1007.1 hPa10 kmSSE (150°)14.8 km/hPartly Cloudy
3:00 PM36 °C24 °C50 %1006.1 hPa10 kmSE (140°)14.8 km/hPartly Cloudy
4:00 PM35 °C24 °C53 %1005.1 hPa10 kmSE (140°)14.8 km/hPartly Cloudy
5:00 PM35 °C22.8 °C39 %1005.8 hPa9.7 kmESE (110°)18 km/hPartly Cloudy
5:00 PM35 °C23 °C49 %1005.1 hPa10 kmESE (110°)20.4 km/hScattered Clouds
6:00 PM33 °C23 °C55 %1006.1 hPa10 kmESE (110°)14.8 km/hScattered Clouds
7:00 PM32 °C24 °C62 %1007.1 hPa10 kmESE (120°)13 km/hScattered Clouds
8:00 PM31.1 °C23.3 °C55 %1008.1 hPa9.7 kmESE (120°)14.3 km/hHaze
8:00 PM31 °C23 °C62 %1008.1 hPa10 kmESE (120°)14.8 km/hScattered Clouds
9:00 PM31 °C23 °C62 %1008.1 hPa10 kmESE (120°)13 km/hPartly Cloudy
10:00 PM30 °C24 °C70 %1008.1 hPa10 kmESE (120°)14.8 km/hPartly Cloudy
11:00 PM29.4 °C23.9 °C66 %1008.8 hPa9.7 kmESE (110°)18 km/hHaze
11:00 PM30 °C24 °C70 %1008.1 hPa10 kmESE (110°)18.5 km/hPartly Cloudy
Hourly data recorded from RPLL, located 0 kilometers away from Quezon City, Philippines







STORIES FROM OUR PARTNERS